Location: Bruderhein
(53.8035°N, 112.9265°W)
Time: 10:18:16
(UTC+00:00)

BEESAT - Pass Details

Date: 05 April 2023
Orbit: 696 x 706 km, 98.5° (Epoch: 29 May)

Event Time Altitude Azimuth Distance (km) Brightness Sun altitude
Rises 03:10:03 0° 30° (NNE) 3,112 ? -8.9°
Reaches altitude 10° 03:13:50 10° 61° (ENE) 2,184 ? -9.4°
Maximum altitude 03:15:43 12° 84° (E) 2,034 ? -9.6°
Enters shadow 03:16:43 12° 97° (E) 2,072 ? -9.8°
